Weather History for Algona, IA

Change the Weather History Date:

Friday, January 18, 2013

  Actual Average Record
Temperature  
Mean Temperature 37 °F -  
Max Temperature 48 °F 23 °F 48 °F (2013)
Min Temperature 26 °F 8 °F -7 °F (1997)
Degree Days  
Heating Degree Days 28    
Moisture  
Dew Point 30 °F    
Average Humidity 81    
Maximum Humidity 93    
Minimum Humidity 54    
Precipitation  
Precipitation 0.00 in - - ()
Sea Level Pressure  
Sea Level Pressure 29.92 in    
Wind  
Wind Speed 14 mph (SSW)    
Max Wind Speed 24 mph    
Max Gust Speed 30 mph    
Visibility 10 miles    
Events      
Averages and records for this station are not official NWS values.
T = Trace of Precipitation, MM = Missing Value Source: NWS Daily Summary

Daily Weather History Graph

Daily Weather History Graph

Search for Another Location

Airport:

Trip Planner

Search our weather history database for the weather conditions in past years. The results will help you decide how hot, cold, wet, or windy it might be!

Date:

Astronomy

Jan. 18, 2013 Rise Set
Actual Time 7:43 AM CST 5:11 PM CST
Civil Twilight 7:12 AM CST 5:42 PM CST
Nautical Twilight 6:37 AM CST 6:17 PM CST
Astronomical Twilight 6:03 AM CST 6:51 PM CST
Moon 11:09 AM CST (1/18) 12:15 AM CST (1/18)
Length of Visible Light 10h 30m
Length of Day
9h 27m
Waxing Crescent, 47% of the Moon is Illuminated
Jan 18
Waxing Crescent
Jan 18
First Quarter
Jan 26
Full
Feb 3
Last Quarter
Feb 10
New

Hourly Weather History & Observations

Time (CST) Temp. Windchill Dew Point Humidity Pressure Visibility Wind Dir Wind Speed Gust Speed Precip Events Conditions
12:15 AM 26.6 °F 16.2 °F 23.0 °F 86% 30.23 in 10.0 mi SE 11.5 mph - N/A   Overcast
12:35 AM 26.6 °F 16.8 °F 23.0 °F 86% 30.22 in 10.0 mi SE 10.4 mph - N/A   Overcast
12:55 AM 26.6 °F 16.2 °F 23.0 °F 86% 30.20 in 10.0 mi SE 11.5 mph - N/A   Mostly Cloudy
1:15 AM 26.6 °F 16.8 °F 23.0 °F 86% 30.20 in 10.0 mi SSE 10.4 mph - N/A   Clear
1:35 AM 26.6 °F 16.2 °F 23.0 °F 86% 30.18 in 10.0 mi SSE 11.5 mph - N/A   Clear
1:55 AM 26.6 °F 15.7 °F 23.0 °F 86% 30.18 in 10.0 mi SSE 12.7 mph - N/A   Scattered Clouds
2:15 AM 26.6 °F 15.7 °F 24.8 °F 93% 30.17 in 10.0 mi SSE 12.7 mph - N/A   Partly Cloudy
2:35 AM 28.4 °F 18.0 °F 24.8 °F 86% 30.16 in 10.0 mi SSE 12.7 mph - N/A   Clear
2:55 AM 28.4 °F 17.5 °F 26.6 °F 93% 30.14 in 10.0 mi SSE 13.8 mph - N/A   Clear
3:15 AM 28.4 °F 17.0 °F 26.6 °F 93% 30.12 in 10.0 mi SSE 15.0 mph - N/A   Clear
3:35 AM 28.4 °F 15.4 °F 26.6 °F 93% 30.09 in 10.0 mi South 19.6 mph - N/A   Clear
3:55 AM 28.4 °F 15.8 °F 26.6 °F 93% 30.08 in 10.0 mi South 18.4 mph 24.2 mph N/A   Clear
4:15 AM 28.4 °F 16.2 °F 26.6 °F 93% 30.06 in 9.0 mi South 17.3 mph 23.0 mph N/A   Clear
4:35 AM 28.4 °F 16.6 °F 26.6 °F 93% 30.05 in 8.0 mi South 16.1 mph - N/A   Clear
4:55 AM 28.4 °F 15.4 °F 26.6 °F 93% 30.04 in 8.0 mi South 19.6 mph - N/A   Clear
5:15 AM 28.4 °F 16.6 °F 26.6 °F 93% 30.02 in 10.0 mi South 16.1 mph - N/A   Clear
5:35 AM 28.4 °F 16.6 °F 26.6 °F 93% 30.01 in 10.0 mi South 16.1 mph - N/A   Clear
5:55 AM 28.4 °F 16.6 °F 26.6 °F 93% 29.99 in 10.0 mi South 16.1 mph - N/A   Clear
6:15 AM 30.2 °F 18.5 °F 28.4 °F 93% 29.98 in 10.0 mi South 17.3 mph - N/A   Clear
6:35 AM 30.2 °F 18.1 °F 28.4 °F 93% 29.97 in 10.0 mi South 18.4 mph - N/A   Clear
6:55 AM 30.2 °F 18.5 °F 28.4 °F 93% 29.96 in 10.0 mi South 17.3 mph - N/A   Clear
7:15 AM 30.2 °F 17.8 °F 28.4 °F 93% 29.95 in 10.0 mi SSW 19.6 mph - N/A   Clear
7:35 AM 30.2 °F 17.4 °F 28.4 °F 93% 29.94 in 10.0 mi SSW 20.7 mph - N/A   Clear
7:55 AM 30.2 °F 17.4 °F 28.4 °F 93% 29.93 in 10.0 mi SSW 20.7 mph - N/A   Clear
8:15 AM 30.2 °F 18.1 °F 28.4 °F 93% 29.92 in 10.0 mi SSW 18.4 mph 24.2 mph N/A   Clear
8:35 AM 32.0 °F 20.1 °F 28.4 °F 87% 29.92 in 10.0 mi SSW 19.6 mph - N/A   Clear
8:55 AM 33.8 °F 23.5 °F 28.4 °F 81% 29.92 in 10.0 mi SSW 16.1 mph - N/A   Clear
9:15 AM 33.8 °F 23.9 °F 28.4 °F 81% 29.92 in 10.0 mi SSW 15.0 mph - N/A   Clear
9:35 AM 35.6 °F 25.5 °F 30.2 °F 81% 29.92 in 10.0 mi SSW 17.3 mph - N/A   Clear
9:55 AM 37.4 °F 27.5 °F 30.2 °F 75% 29.91 in 10.0 mi SSW 18.4 mph - N/A   Clear
10:15 AM 39.2 °F 29.8 °F 30.2 °F 70% 29.91 in 10.0 mi SW 18.4 mph 26.5 mph N/A   Clear
10:35 AM 39.2 °F 29.3 °F 30.2 °F 70% 29.91 in 10.0 mi SW 20.7 mph - N/A   Clear
10:55 AM 41.0 °F 31.9 °F 30.2 °F 65% 29.90 in 10.0 mi SW 19.6 mph 27.6 mph N/A   Clear
11:15 AM 41.0 °F 31.1 °F 30.2 °F 65% 29.88 in 10.0 mi SW 23.0 mph - N/A   Clear
11:35 AM 42.8 °F 34.3 °F 32.0 °F 66% 29.87 in - SW 19.6 mph 28.8 mph N/A   Clear
11:55 AM 42.8 °F 33.3 °F 32.0 °F 66% 29.84 in 10.0 mi SW 24.2 mph 29.9 mph N/A   Clear
12:15 PM 44.6 °F 36.4 °F 32.0 °F 61% 29.83 in 10.0 mi SW 20.7 mph - N/A   Clear
12:35 PM 44.6 °F 35.7 °F 32.0 °F 61% 29.82 in 10.0 mi SW 24.2 mph - N/A   Clear
12:55 PM 44.6 °F 35.7 °F 32.0 °F 61% 29.82 in 10.0 mi SW 24.2 mph - N/A   Clear
1:15 PM 46.4 °F 38.3 °F 32.0 °F 57% 29.81 in 10.0 mi WSW 23.0 mph - N/A   Clear
1:35 PM 46.4 °F 38.7 °F 32.0 °F 57% 29.80 in 10.0 mi SW 20.7 mph - N/A   Clear
1:55 PM 46.4 °F 39.0 °F 32.0 °F 57% 29.81 in 10.0 mi SW 19.6 mph - N/A   Clear
2:15 PM 48.2 °F - 32.0 °F 54% 29.81 in 10.0 mi WSW 18.4 mph - N/A   Clear
2:35 PM 48.2 °F - 32.0 °F 54% 29.80 in 10.0 mi WSW 20.7 mph 27.6 mph N/A   Clear
2:55 PM 48.2 °F - 33.8 °F 58% 29.80 in 10.0 mi WSW 17.3 mph 24.2 mph N/A   Clear
3:15 PM 46.4 °F 38.7 °F 33.8 °F 62% 29.80 in 10.0 mi SW 20.7 mph - N/A   Clear
3:35 PM 44.6 °F 37.8 °F 33.8 °F 66% 29.81 in 10.0 mi WSW 15.0 mph - N/A   Clear
3:55 PM 44.6 °F 38.1 °F 33.8 °F 66% 29.82 in 10.0 mi SW 13.8 mph - N/A   Clear
4:15 PM 44.6 °F 37.4 °F 33.8 °F 66% 29.81 in 10.0 mi SW 16.1 mph - N/A   Clear
4:35 PM 44.6 °F 37.4 °F 33.8 °F 66% 29.81 in 10.0 mi SW 16.1 mph - N/A   Clear
4:55 PM 42.8 °F 35.4 °F 33.8 °F 70% 29.82 in 10.0 mi SW 15.0 mph - N/A   Clear
5:15 PM 39.2 °F 32.0 °F 32.0 °F 75% 29.83 in 10.0 mi SW 11.5 mph - N/A   Clear
5:35 PM 37.4 °F 30.3 °F 32.0 °F 81% 29.83 in 10.0 mi WSW 10.4 mph - N/A   Clear
5:55 PM 37.4 °F 31.4 °F 32.0 °F 81% 29.84 in 10.0 mi SW 8.1 mph - N/A   Clear
6:15 PM 37.4 °F 31.4 °F 32.0 °F 81% 29.84 in 10.0 mi SW 8.1 mph - N/A   Clear
6:35 PM 35.6 °F 29.9 °F 32.0 °F 87% 29.84 in 9.0 mi WSW 6.9 mph - N/A   Clear
6:55 PM 35.6 °F 29.9 °F 32.0 °F 87% 29.84 in 10.0 mi SW 6.9 mph - N/A   Clear
7:15 PM 35.6 °F 29.2 °F 32.0 °F 87% 29.84 in 10.0 mi WSW 8.1 mph - N/A   Clear
7:35 PM 35.6 °F 29.2 °F 32.0 °F 87% 29.85 in 10.0 mi SW 8.1 mph - N/A   Clear
7:55 PM 37.4 °F 32.1 °F 32.0 °F 81% 29.84 in 10.0 mi SW 6.9 mph - N/A   Clear
8:15 PM 35.6 °F 30.7 °F 32.0 °F 87% 29.84 in 10.0 mi SSW 5.8 mph - N/A   Clear
8:35 PM 35.6 °F 30.7 °F 32.0 °F 87% 29.84 in - SSW 5.8 mph - N/A   Unknown
8:55 PM 35.6 °F 29.2 °F 32.0 °F 87% 29.84 in 10.0 mi SW 8.1 mph - N/A   Clear
9:15 PM 33.8 °F - 30.2 °F 87% 29.84 in 10.0 mi Calm Calm - N/A   Clear
9:35 PM 33.8 °F 27.7 °F 32.0 °F 93% 29.84 in 10.0 mi SSW 6.9 mph - N/A   Clear
9:55 PM 35.6 °F 29.9 °F 32.0 °F 87% 29.83 in 10.0 mi SSW 6.9 mph - N/A   Clear
10:15 PM 33.8 °F 27.0 °F 32.0 °F 93% 29.84 in 10.0 mi SSW 8.1 mph - N/A   Clear
10:35 PM 35.6 °F 30.7 °F 32.0 °F 87% 29.83 in 10.0 mi SSW 5.8 mph - N/A   Clear
10:55 PM 35.6 °F 28.6 °F 32.0 °F 87% 29.82 in 10.0 mi SW 9.2 mph - N/A   Clear
11:15 PM 35.6 °F 29.2 °F 32.0 °F 87% 29.82 in 10.0 mi SSW 8.1 mph - N/A   Clear
11:35 PM 33.8 °F 27.0 °F 32.0 °F 93% 29.81 in 10.0 mi SSW 8.1 mph - N/A   Clear
11:55 PM 33.8 °F 27.7 °F 32.0 °F 93% 29.81 in 10.0 mi SSW 6.9 mph - N/A   Clear